Location: *
(39.6167°S, 171.5333°W)
Time: 19:44:39
(UTC+00:00)

Okean O Rocket - Pass Details

Date: 13 May 2021
Orbit: 622 x 645 km, 98.2° (Epoch: 19 June)

Event Time Altitude Azimuth Distance (km) Brightness Sun altitude
Rises 17:34:49 0° 5° (N) 2,895 5.3 -9.4°
Reaches altitude 10° 17:37:01 10° 2° (N) 1,998 4.4 -9.0°
Maximum altitude 17:41:19 60° 281° (WNW) 726 1.7 -8.2°
Drops below altitude 10° 17:45:42 10° 200° (SSW) 2,037 3.9 -7.4°
Sets 17:47:58 0° 196° (SSW) 2,957 4.7 -7.0°
